Location: Riverside Cemetery
(38.3047°N, 99.7773°W)
Time: 11:15:17
(UTC+00:00)

MSX - Pass Details

Date: 19 September 2020
Orbit: 895 x 906 km, 98.8° (Epoch: 25 October)

Event Time Altitude Azimuth Distance (km) Brightness Sun altitude
Rises 10:15:00 0° 10° (N) 3,538 7.4 -25.5°
Reaches altitude 10° 10:17:25 10° 9° (N) 2,592 6.6 -25.1°
Maximum altitude 10:23:11 72° 286° (WNW) 948 3.7 -24.0°
Enters shadow 10:24:38 51° 220° (SW) 1,128 3.9 -23.8°
